[[{"header":{"parameterUnit":"m.s-1","parameterCategory":1,"la1":30.2991,"la2":30.254,"lo1":-89.0895,"lo2":-89.0444,"dy":0.0017,"dx":0.0017,"nx":28,"ny":28,"refTime":"2024-07-14T03:00:00:Z","depth":0,"parameterNumber":2,"parameterNumberName":"U-component_of_WINDS"},"data":[0,0,0,0,0,0,0,0,0,0,0,0,0,0,0,0,0,0,0,0,0,0,0,0,0,0,0,0,0,0,0,0,0,0,0,0,0,0,0,0,0,0,0,0,0,0,0,0,0,0,0,0,0,0,0,0,0,0,2.634,2.6341,0,2.646,2.6462,2.6463,2.6449,2.6447,2.6445,2.6443,2.6567,2.6572,2.6577,0,0,0,0,0,0,0,0,0,0,0,0,0,2.6096,2.61,2.634,2.6341,2.6343,2.646,2.6462,2.6464,2.645,2.6447,2.6445,2.6443,2.6565,2.6571,2.6577,0,0,0,0,0,0,0,0,0,0,0,0,0,2.6208,2.6102,2.6339,2.635,2.6352,2.646,2.6462,2.6464,2.645,2.6447,2.6444,2.6441,2.6563,2.6571,2.6578,2.6683,0,0,2.6602,2.6605,0,0,0,0,0,0,0,0,2.6201,2.6217,2.6347,2.6349,2.6352,2.6437,2.6421,2.6538,2.6451,2.6413,2.6443,2.644,2.6526,2.6536,2.6565,2.6689,2.6694,2.6602,2.6607,2.661,2.6612,0,0,0,0,0,0,0,2.6194,2.6211,2.6387,2.6349,2.6352,2.6348,2.6361,2.6443,2.6484,2.6416,2.6415,2.643,2.6527,2.6558,2.6568,2.6696,2.6602,2.6609,2.6613,2.6616,2.691,2.6913,0,0,0,0,0,0,2.6183,2.6205,2.6384,2.6391,2.6268,2.6355,2.6369,2.6412,2.6483,2.6491,2.6432,2.6429,2.6547,2.6559,2.6573,2.6698,2.661,2.6617,2.6622,2.6907,2.6911,2.6914,0,0,0,0,0,0,2.6178,2.6199,2.6379,2.6298,2.632,2.6362,2.6411,2.6416,2.6448,2.6495,2.6503,2.6457,2.6545,2.6562,2.6655,2.6702,2.6621,2.6628,2.6903,2.6908,2.6912,2.6951,0,0,0,0,0,0,2.6171,2.6198,2.6238,2.6299,2.6325,2.646,2.6414,2.6421,2.6461,2.6458,2.652,2.6528,2.6544,2.6644,2.6663,2.6711,2.6634,2.6899,2.6905,2.6911,2.6946,2.6957,2.6966,0,0,0,0,0,2.6163,2.6245,2.624,2.6262,2.6377,2.6463,2.6477,2.6494,2.6465,2.6506,2.6536,2.6526,2.6695,2.6654,2.6675,2.6726,2.6896,2.6903,2.691,2.6942,2.6955,2.6966,0,0,0,0,0,0,2.6189,2.6253,2.6249,2.6354,2.6403,2.646,2.6512,2.6508,2.6567,2.6561,2.6579,2.6593,2.6687,2.6717,2.667,2.6831,2.6791,2.6803,2.6808,2.6821,2.6831,2.6821,2.664,0,0,0,0,0,2.6207,2.6272,2.6325,2.6412,2.6437,2.647,2.6508,2.6517,2.6569,2.6589,2.6627,2.6677,2.6741,2.6783,2.6845,2.6951,2.6963,2.6997,2.7007,2.7015,2.7024,2.708,2.7095,2.6938,2.6938,2.6938,0,0,2.6245,2.6288,2.6328,2.6418,2.6457,2.6523,2.6488,2.656,2.6608,2.66,2.669,2.6719,2.6777,2.6876,2.6922,2.6904,2.7071,2.7024,2.703,2.7035,2.7089,2.7104,2.7117,2.6943,2.6942,2.6941,0,0,2.6347,2.6387,2.6463,2.6503,2.6562,2.6584,2.6602,2.666,2.6679,2.677,2.6764,2.6823,2.6934,2.6974,2.7009,2.7125,2.7117,2.7145,2.7197,2.7252,2.7264,2.7275,2.7314,2.7328,2.7155,2.7155,2.7155,0,2.6386,2.6486,2.6503,2.6575,2.6613,2.6609,2.6685,2.6723,2.68,2.6827,2.6805,2.6943,2.6981,2.7089,2.7117,2.7147,2.7167,2.7137,2.7261,2.7272,2.7283,2.732,2.7335,2.7158,2.7157,2.7157,2.7157,0,2.653,2.6599,2.6653,2.6726,2.6772,2.6846,2.6873,2.6917,2.6921,2.6945,2.7036,2.7083,2.7153,2.7179,2.7185,2.7288,2.7274,2.7257,2.7217,2.73,2.7335,2.735,2.7162,2.7161,2.716,2.7159,0,0,2.6651,2.6732,2.6752,2.6784,2.6849,2.6902,2.6976,2.7044,2.708,2.7134,2.7194,2.7287,2.7271,2.7311,2.7321,2.7369,2.7456,2.7346,2.7347,2.7362,2.7569,2.758,2.7596,2.7452,2.7455,2.7457,2.7563,0,2.6758,2.6887,2.6904,2.7018,2.708,2.7077,2.714,2.7187,2.7211,2.7267,2.7294,2.7359,2.7334,2.7358,2.7405,2.7435,2.7497,2.7428,2.7507,2.7509,2.749,2.7615,2.7627,2.7725,2.7577,2.758,2.7582,0,2.6899,2.6955,2.7075,2.713,2.7157,2.7213,2.7276,2.7331,2.7383,2.7397,2.7441,2.7445,2.7519,2.7478,2.758,2.7533,2.7566,2.7586,2.759,2.7596,2.7549,2.7622,2.7757,2.7771,2.7604,2.7602,2.7601,0,2.6972,2.7078,2.7163,2.7191,2.7258,2.7297,2.7327,2.7376,2.7415,2.7471,2.7496,2.756,2.7594,2.7643,2.7663,2.7632,2.7763,2.7724,2.7776,2.7775,2.7802,2.7799,2.7941,2.7828,2.7827,2.7827,2.7827,0,2.7088,2.7161,2.7196,2.7248,2.7329,2.7348,2.7428,2.7456,2.75,2.7556,2.7559,2.7612,2.7637,2.7693,2.771,2.7791,2.7807,2.7819,2.7822,2.7818,2.7816,2.7838,2.7831,2.7831,2.783,2.7829,2.7829,0,2.7183,2.721,2.7301,2.7357,2.7372,2.7429,2.7476,2.7526,2.755,2.7621,2.7639,2.7676,2.7743,2.7769,2.7851,2.7862,2.7954,2.7953,2.7936,2.7937,2.7985,2.7979,2.8145,2.8167,2.8041,2.8042,2.8043,0,2.7253,2.7309,2.737,2.7408,2.7439,2.75,2.754,2.7561,2.7602,2.7665,2.7707,2.7773,2.7827,2.7934,2.7968,2.803,2.8029,2.8083,2.8038,2.8031,2.8027,2.8022,2.8027,2.809,2.8092,2.8093,2.8093,0,2.7375,2.7386,2.7443,2.7505,2.7552,2.7602,2.765,2.7681,2.7709,2.7755,2.7823,2.7865,2.7948,2.8013,2.8077,2.8107,2.8105,2.8107,2.8122,2.8117,2.8103,2.8109,2.7956,2.8103,2.8102,2.8101,2.8101,2.81,2.7459,2.7507,2.7557,2.7621,2.7659,2.7704,2.7752,2.7782,2.7839,2.7907,2.7917,2.7989,2.8038,2.8124,2.8156,2.8213,2.8198,2.822,2.8226,2.823,2.8232,2.8096,2.8225,2.8225,2.8224,2.8224,2.8224,0,2.7579,2.761,2.7669,2.7735,2.7785,2.7779,2.7831,2.7873,2.7936,2.7983,2.8036,2.8113,2.8176,2.8215,2.8278,2.8316,2.8316,2.8331,2.8328,2.8334,2.8243,2.8222,2.833,2.833,2.833,2.833,2.833,2.833,2.7647,2.7728,2.7744,2.7843,2.7875,2.7945,2.7975,2.8016,2.8053,2.8139,2.8191,2.8216,2.8259,2.8325,2.8382,2.8392,2.8414,2.843,2.8439,2.8352,2.8341,2.833,2.8311,2.8436,2.8436,2.8525,2.8526,2.8527]},{"header":{"parameterUnit":"m.s-1","parameterCategory":1,"la1":30.2991,"la2":30.254,"lo1":-89.0895,"lo2":-89.0444,"dy":0.0017,"dx":0.0017,"nx":28,"ny":28,"refTime":"2024-07-14T03:00:00:Z","depth":0,"parameterNumber":3,"parameterNumberName":"V-component_of_WINDS"},"data":[0,0,0,0,0,0,0,0,0,0,0,0,0,0,0,0,0,0,0,0,0,0,0,0,0,0,0,0,0,0,0,0,0,0,0,0,0,0,0,0,0,0,0,0,0,0,0,0,0,0,0,0,0,0,0,0,0,0,1.3336,1.3336,0,1.3333,1.3333,1.3332,1.3293,1.3292,1.3291,1.329,1.3287,1.3288,1.3289,0,0,0,0,0,0,0,0,0,0,0,0,0,1.3306,1.3307,1.3336,1.3336,1.3336,1.3333,1.3333,1.3332,1.3293,1.3292,1.3291,1.3289,1.3287,1.3288,1.3289,0,0,0,0,0,0,0,0,0,0,0,0,0,1.3313,1.3307,1.3336,1.3315,1.3314,1.3333,1.3333,1.3332,1.3293,1.3292,1.329,1.3289,1.3287,1.3288,1.3289,1.3327,0,0,1.3293,1.3294,0,0,0,0,0,0,0,0,1.3313,1.3314,1.3318,1.3317,1.3315,1.3311,1.3321,1.3331,1.3294,1.3301,1.329,1.3288,1.3297,1.3297,1.33,1.3327,1.3327,1.3293,1.3294,1.3295,1.3295,0,0,0,0,0,0,0,1.3312,1.3314,1.3334,1.3319,1.3316,1.3306,1.3306,1.3323,1.3307,1.33,1.3297,1.3297,1.3295,1.3299,1.3299,1.3327,1.3293,1.3294,1.3295,1.3296,1.3384,1.3385,0,0,0,0,0,0,1.3315,1.3314,1.3335,1.3334,1.331,1.3308,1.3307,1.3314,1.3307,1.3304,1.3299,1.3296,1.3297,1.3298,1.3299,1.3342,1.3295,1.3296,1.3297,1.3382,1.3384,1.3386,0,0,0,0,0,0,1.3314,1.3317,1.3335,1.3323,1.3325,1.331,1.3318,1.3315,1.3318,1.3306,1.3303,1.3305,1.3296,1.3297,1.332,1.3342,1.3296,1.3298,1.338,1.3383,1.3385,1.3429,0,0,0,0,0,0,1.3313,1.3317,1.3332,1.3324,1.3326,1.3356,1.332,1.3316,1.332,1.3316,1.3311,1.3309,1.3295,1.3318,1.3321,1.3342,1.3299,1.3378,1.3381,1.3384,1.3426,1.3433,1.3439,0,0,0,0,0,1.3313,1.3345,1.3333,1.3335,1.3344,1.3358,1.3358,1.3342,1.3322,1.3337,1.3328,1.3309,1.3339,1.3321,1.3324,1.3346,1.3377,1.3381,1.3384,1.3423,1.3432,1.3439,0,0,0,0,0,0,1.3356,1.3344,1.333,1.3361,1.336,1.3351,1.3369,1.3352,1.3357,1.3353,1.3332,1.3331,1.3357,1.3354,1.3335,1.3381,1.3354,1.3359,1.3383,1.3391,1.3397,1.3397,1.33,0,0,0,0,0,1.3369,1.3382,1.337,1.3398,1.3399,1.3384,1.3389,1.3376,1.3375,1.3375,1.3369,1.3368,1.3377,1.3384,1.3392,1.3425,1.3423,1.3441,1.3448,1.3453,1.3457,1.3473,1.3481,1.3397,1.3397,1.3397,0,0,1.3397,1.3391,1.3401,1.3407,1.3405,1.3418,1.3384,1.34,1.3409,1.3377,1.3398,1.3393,1.3392,1.3419,1.3431,1.3417,1.3479,1.3458,1.3462,1.3463,1.3477,1.3485,1.3492,1.34,1.3399,1.3399,0,0,1.3453,1.3451,1.3473,1.3472,1.3469,1.3459,1.3464,1.3457,1.3452,1.3473,1.3449,1.3459,1.3476,1.3475,1.3477,1.3531,1.3512,1.3534,1.3568,1.3583,1.359,1.3595,1.3614,1.362,1.3538,1.3538,1.3538,0,1.3488,1.3506,1.3487,1.3504,1.3506,1.3478,1.35,1.3499,1.35,1.3502,1.3486,1.3505,1.3502,1.3529,1.3541,1.3544,1.3549,1.3534,1.359,1.3596,1.3601,1.3618,1.3625,1.354,1.354,1.354,1.354,0,1.3548,1.3561,1.358,1.358,1.3585,1.3604,1.3587,1.3594,1.358,1.3571,1.3591,1.3586,1.3592,1.3597,1.3584,1.3621,1.3613,1.3594,1.3566,1.3612,1.3627,1.3634,1.3544,1.3543,1.3542,1.3542,0,0,1.3634,1.3621,1.3628,1.3627,1.3621,1.3631,1.3648,1.3653,1.3659,1.366,1.3673,1.3687,1.3669,1.3671,1.3657,1.3671,1.3712,1.365,1.365,1.3661,1.3751,1.3765,1.3773,1.37,1.3701,1.3702,1.3751,0,1.3687,1.3716,1.3698,1.373,1.374,1.3712,1.3727,1.3725,1.3717,1.3724,1.3715,1.3725,1.3701,1.3701,1.3714,1.3705,1.373,1.3701,1.3711,1.3712,1.3712,1.3781,1.3796,1.3843,1.3757,1.3758,1.3759,0,1.3754,1.3756,1.3789,1.3779,1.3782,1.3796,1.3798,1.3806,1.3802,1.3795,1.3797,1.3779,1.3794,1.3767,1.3787,1.3768,1.3771,1.3767,1.3768,1.3768,1.3738,1.3782,1.3857,1.3864,1.3768,1.3768,1.3767,0,1.3811,1.3823,1.3843,1.3843,1.3832,1.3842,1.3838,1.3833,1.3836,1.3838,1.384,1.3844,1.3846,1.3849,1.3832,1.3814,1.3854,1.3826,1.3848,1.3848,1.3858,1.3857,1.3934,1.3861,1.3861,1.3861,1.3861,0,1.3873,1.3893,1.3868,1.3881,1.3903,1.3882,1.3904,1.3897,1.3892,1.3902,1.3878,1.3888,1.3866,1.3873,1.3861,1.3879,1.388,1.3874,1.387,1.3876,1.3877,1.3878,1.3874,1.3862,1.3862,1.3862,1.3861,0,1.3941,1.3925,1.3945,1.3933,1.393,1.3946,1.3936,1.3946,1.3936,1.3949,1.395,1.3934,1.3941,1.3925,1.393,1.3921,1.3947,1.3938,1.3948,1.3945,1.3968,1.3966,1.4047,1.4056,1.3979,1.3979,1.398,0,1.3981,1.3996,1.3985,1.3989,1.3986,1.3995,1.3997,1.3977,1.3981,1.3976,1.3987,1.3993,1.3996,1.4009,1.3997,1.4,1.3991,1.4019,1.3992,1.3996,1.399,1.399,1.399,1.4025,1.4026,1.4027,1.4027,0,1.4053,1.4044,1.4049,1.4051,1.4055,1.4055,1.4054,1.406,1.4037,1.4043,1.405,1.4052,1.4056,1.4062,1.4062,1.4057,1.4039,1.4036,1.4041,1.4047,1.4052,1.4048,1.3963,1.4034,1.4034,1.4033,1.4033,1.4033,1.4108,1.4119,1.4112,1.4118,1.4115,1.4114,1.4123,1.4113,1.4118,1.4119,1.4107,1.4116,1.411,1.4109,1.4106,1.4113,1.41,1.4108,1.4109,1.4112,1.4115,1.4051,1.4113,1.4112,1.4112,1.4112,1.4112,0,1.4178,1.4172,1.4178,1.4176,1.418,1.4161,1.4159,1.4163,1.4172,1.4168,1.4171,1.4178,1.4182,1.417,1.4172,1.418,1.4171,1.4181,1.418,1.4179,1.4127,1.4122,1.4188,1.4188,1.4188,1.4188,1.4188,1.4188,1.4215,1.4233,1.4223,1.4238,1.4231,1.424,1.424,1.4238,1.4235,1.4243,1.4247,1.4238,1.4231,1.4232,1.4235,1.4231,1.4233,1.4246,1.4239,1.419,1.4183,1.4176,1.4171,1.4246,1.4246,1.429,1.4291,1.4291]}]]